Location: Shenandoah County Park
(38.9356°N, 78.4524°W)
Time: 07:18:23
(UTC-04:00)

Vanguard 1 Rocket - Pass Details

Date: 13 February 2023
Orbit: 652 x 4223 km, 34.3° (Epoch: 26 March)

Event Time Altitude Azimuth Distance (km) Brightness Sun altitude
Rises 17:32:55 0° 275° (W) 6,123 13.1 2.1°
Reaches altitude 10° 17:37:39 10° 263° (W) 5,631 13.5 1.2°
Maximum altitude 17:50:40 24° 218° (SW) 5,600 12.2 -1.2°
Drops below altitude 10° 18:07:52 10° 175° (S) 7,398 12.1 -4.4°
Sets 18:15:56 0° 163° (SSE) 8,422 12.3 -5.9°
